[[{"header":{"parameterUnit":"m.s-1","parameterCategory":1,"la1":30.2991,"la2":30.254,"lo1":-89.0895,"lo2":-89.0444,"dy":0.0017,"dx":0.0017,"nx":28,"ny":28,"refTime":"2023-10-07T21:00:00:Z","depth":0,"parameterNumber":2,"parameterNumberName":"U-component_of_WINDS"},"data":[0,0,0,0,0,0,0,0,0,0,0,0,0,0,0,0,0,0,0,0,0,0,0,0,0,0,0,0,0,0,0,0,0,0,0,0,0,0,0,0,0,0,0,0,0,0,0,0,0,0,0,0,0,0,0,0,0,0,-2.6146,-2.6147,0,-2.6195,-2.6195,-2.6196,-2.6052,-2.6047,-2.6043,-2.6039,-2.6091,-2.6096,-2.6102,0,0,0,0,0,0,0,0,0,0,0,0,0,-2.593,-2.5934,-2.6146,-2.6147,-2.6147,-2.6195,-2.6195,-2.6196,-2.6053,-2.6047,-2.6042,-2.6037,-2.6089,-2.6096,-2.6102,0,0,0,0,0,0,0,0,0,0,0,0,0,-2.6006,-2.5936,-2.6146,-2.6081,-2.6076,-2.6195,-2.6195,-2.6196,-2.6054,-2.6047,-2.604,-2.6034,-2.6087,-2.6095,-2.6103,-2.6287,0,0,-2.6128,-2.6132,0,0,0,0,0,0,0,0,-2.6001,-2.6014,-2.609,-2.6086,-2.608,-2.611,-2.6138,-2.6227,-2.6055,-2.6062,-2.6039,-2.6031,-2.6103,-2.6109,-2.6133,-2.6289,-2.6292,-2.6129,-2.6134,-2.6138,-2.614,0,0,0,0,0,0,0,-2.5996,-2.6011,-2.6165,-2.6092,-2.6086,-2.605,-2.6054,-2.6154,-2.6119,-2.6061,-2.6051,-2.6058,-2.6099,-2.6126,-2.6133,-2.6292,-2.6129,-2.6136,-2.6141,-2.6144,-2.6601,-2.6608,0,0,0,0,0,0,-2.5999,-2.6007,-2.6164,-2.6167,-2.6024,-2.6059,-2.6063,-2.6107,-2.6118,-2.6113,-2.6064,-2.6052,-2.6115,-2.6124,-2.6135,-2.6351,-2.6138,-2.6145,-2.615,-2.6594,-2.6603,-2.6611,0,0,0,0,0,0,-2.5995,-2.6015,-2.6162,-2.6084,-2.61,-2.607,-2.6121,-2.6112,-2.6138,-2.612,-2.6113,-2.6098,-2.611,-2.6123,-2.625,-2.6351,-2.6149,-2.6157,-2.6586,-2.6597,-2.6607,-2.6787,0,0,0,0,0,0,-2.599,-2.6014,-2.6084,-2.6087,-2.6105,-2.6277,-2.6127,-2.6118,-2.6153,-2.6137,-2.615,-2.6146,-2.6106,-2.6238,-2.6258,-2.6359,-2.6163,-2.6577,-2.6591,-2.6603,-2.6772,-2.6802,-2.6828,0,0,0,0,0,-2.5982,-2.6133,-2.6088,-2.6108,-2.6192,-2.6283,-2.6294,-2.6244,-2.6162,-2.6232,-2.6219,-2.6145,-2.6336,-2.6253,-2.6274,-2.6379,-2.657,-2.6587,-2.6602,-2.6759,-2.6796,-2.6828,0,0,0,0,0,0,-2.6144,-2.6132,-2.6083,-2.6238,-2.6263,-2.6259,-2.6346,-2.6285,-2.6334,-2.6317,-2.6254,-2.6258,-2.6397,-2.6399,-2.6307,-2.6557,-2.6439,-2.646,-2.6551,-2.6586,-2.6614,-2.6612,-2.617,0,0,0,0,0,-2.6197,-2.6273,-2.6258,-2.6397,-2.6412,-2.6377,-2.6415,-2.6374,-2.6397,-2.6407,-2.6404,-2.643,-2.6495,-2.654,-2.6599,-2.6769,-2.6771,-2.6852,-2.688,-2.6904,-2.6924,-2.7015,-2.7051,-2.6664,-2.6664,-2.6663,0,0,-2.631,-2.6312,-2.6364,-2.643,-2.6444,-2.6524,-2.6387,-2.6477,-2.6536,-2.6421,-2.6541,-2.654,-2.6563,-2.6713,-2.6779,-2.672,-2.703,-2.6924,-2.6943,-2.6951,-2.7035,-2.7072,-2.7105,-2.6675,-2.6673,-2.6671,0,0,-2.6555,-2.6564,-2.6681,-2.6698,-2.672,-2.6695,-2.6723,-2.6728,-2.6723,-2.6841,-2.6757,-2.6825,-2.6939,-2.696,-2.6986,-2.7237,-2.7171,-2.7257,-2.7408,-2.7497,-2.7527,-2.7554,-2.7646,-2.7679,-2.7277,-2.7277,-2.7277,0,-2.6693,-2.6809,-2.675,-2.6846,-2.6877,-2.6775,-2.6893,-2.6912,-2.6953,-2.6978,-2.691,-2.705,-2.7059,-2.7213,-2.7274,-2.7297,-2.7328,-2.7258,-2.7528,-2.7554,-2.7578,-2.7665,-2.7699,-2.7288,-2.7286,-2.7285,-2.7284,0,-2.6977,-2.7059,-2.7151,-2.7192,-2.7234,-2.7341,-2.7298,-2.7346,-2.7301,-2.7284,-2.7406,-2.7412,-2.7471,-2.7504,-2.7461,-2.7652,-2.7614,-2.7538,-2.7419,-2.7627,-2.7707,-2.774,-2.7303,-2.7299,-2.7296,-2.7293,0,0,-2.733,-2.7335,-2.7371,-2.7388,-2.7404,-2.7466,-2.7567,-2.7624,-2.7668,-2.7699,-2.7783,-2.7881,-2.781,-2.7839,-2.7797,-2.7875,-2.8075,-2.7789,-2.7788,-2.7844,-2.8287,-2.8347,-2.8387,-2.8029,-2.8035,-2.804,-2.8286,0,-2.7574,-2.7749,-2.7697,-2.7873,-2.7948,-2.785,-2.7938,-2.7958,-2.7943,-2.8005,-2.7988,-2.8059,-2.7959,-2.7976,-2.8049,-2.8036,-2.8164,-2.8016,-2.811,-2.8114,-2.8111,-2.8428,-2.8492,-2.8724,-2.8317,-2.8322,-2.8326,0,-2.7883,-2.7926,-2.8109,-2.8111,-2.8141,-2.8221,-2.8269,-2.8328,-2.8348,-2.8331,-2.8363,-2.8304,-2.8404,-2.8281,-2.8418,-2.832,-2.8353,-2.8352,-2.836,-2.837,-2.8235,-2.845,-2.8797,-2.8833,-2.8374,-2.837,-2.8367,0,-2.8126,-2.8228,-2.8351,-2.8368,-2.8374,-2.8433,-2.8438,-2.845,-2.8487,-2.8528,-2.8552,-2.8604,-2.8633,-2.8675,-2.8632,-2.8546,-2.8776,-2.865,-2.8767,-2.8769,-2.8824,-2.8822,-2.9185,-2.884,-2.884,-2.8839,-2.8838,0,-2.8406,-2.8523,-2.846,-2.8537,-2.8664,-2.8602,-2.873,-2.8723,-2.8735,-2.8808,-2.8725,-2.8796,-2.8732,-2.8797,-2.8763,-2.8883,-2.8896,-2.8887,-2.8877,-2.8897,-2.8899,-2.8921,-2.8905,-2.8848,-2.8846,-2.8844,-2.8843,0,-2.8701,-2.8663,-2.8791,-2.8785,-2.8786,-2.888,-2.8875,-2.8945,-2.8922,-2.9016,-2.9034,-2.9,-2.9072,-2.9032,-2.9105,-2.9082,-2.9239,-2.9205,-2.9233,-2.9225,-2.9346,-2.9337,-2.974,-2.979,-2.941,-2.9414,-2.9417,0,-2.8885,-2.8972,-2.8974,-2.9017,-2.9027,-2.9097,-2.9134,-2.9075,-2.9117,-2.9145,-2.9212,-2.9276,-2.9325,-2.9444,-2.9426,-2.9482,-2.9451,-2.9588,-2.9459,-2.9476,-2.9457,-2.9454,-2.9463,-2.9616,-2.962,-2.9624,-2.9627,0,-2.9215,-2.9191,-2.9247,-2.9298,-2.9344,-2.938,-2.941,-2.9449,-2.9391,-2.9442,-2.9514,-2.9551,-2.9626,-2.9691,-2.9738,-2.9743,-2.9677,-2.9667,-2.9697,-2.972,-2.9734,-2.9731,-2.9308,-2.9659,-2.9656,-2.9653,-2.9652,-2.965,-2.9462,-2.9535,-2.9548,-2.9613,-2.9628,-2.9658,-2.9723,-2.9708,-2.9767,-2.9823,-2.9784,-2.987,-2.9885,-2.9941,-2.9954,-3.002,-2.9965,-3.0009,-3.0021,-3.0034,-3.0051,-2.972,-3.0028,-3.0027,-3.0026,-3.0025,-3.0024,0,-2.979,-2.9793,-2.9853,-2.9897,-2.9948,-2.9877,-2.9906,-2.9954,-3.003,-3.005,-3.0099,-3.0181,-3.0243,-3.0229,-3.0285,-3.0341,-3.0312,-3.0358,-3.0355,-3.0358,-3.0096,-3.0065,-3.0381,-3.0381,-3.0381,-3.038,-3.038,-3.038,-2.9967,-3.0088,-3.0066,-3.0193,-3.0194,-3.0277,-3.0299,-3.0326,-3.0341,-3.0437,-3.0488,-3.0477,-3.0483,-3.0539,-3.0593,-3.0586,-3.0613,-3.0671,-3.0655,-3.0411,-3.0376,-3.0343,-3.0314,-3.0676,-3.0677,-3.0911,-3.0913,-3.0915]},{"header":{"parameterUnit":"m.s-1","parameterCategory":1,"la1":30.2991,"la2":30.254,"lo1":-89.0895,"lo2":-89.0444,"dy":0.0017,"dx":0.0017,"nx":28,"ny":28,"refTime":"2023-10-07T21:00:00:Z","depth":0,"parameterNumber":3,"parameterNumberName":"V-component_of_WINDS"},"data":[0,0,0,0,0,0,0,0,0,0,0,0,0,0,0,0,0,0,0,0,0,0,0,0,0,0,0,0,0,0,0,0,0,0,0,0,0,0,0,0,0,0,0,0,0,0,0,0,0,0,0,0,0,0,0,0,0,0,-6.432,-6.4321,0,-6.4394,-6.4395,-6.4396,-6.4281,-6.4277,-6.4273,-6.427,-6.434,-6.4346,-6.4351,0,0,0,0,0,0,0,0,0,0,0,0,0,-6.4071,-6.4077,-6.432,-6.4321,-6.4322,-6.4394,-6.4395,-6.4396,-6.4282,-6.4277,-6.4272,-6.4268,-6.4338,-6.4345,-6.4352,0,0,0,0,0,0,0,0,0,0,0,0,0,-6.4166,-6.4078,-6.432,-6.4274,-6.427,-6.4394,-6.4395,-6.4396,-6.4283,-6.4277,-6.4271,-6.4266,-6.4336,-6.4344,-6.4352,-6.4523,0,0,-6.4378,-6.4382,0,0,0,0,0,0,0,0,-6.4161,-6.4175,-6.4279,-6.4277,-6.4273,-6.4322,-6.4333,-6.4439,-6.4284,-6.4278,-6.4269,-6.4263,-6.4339,-6.4346,-6.4373,-6.4526,-6.4529,-6.4379,-6.4384,-6.4387,-6.439,0,0,0,0,0,0,0,-6.4154,-6.4171,-6.4349,-6.4281,-6.4277,-6.4247,-6.4254,-6.4353,-6.434,-6.4278,-6.427,-6.4281,-6.4336,-6.4365,-6.4374,-6.453,-6.4378,-6.4386,-6.4391,-6.4394,-6.4824,-6.483,0,0,0,0,0,0,-6.4154,-6.4167,-6.4346,-6.4351,-6.4201,-6.4256,-6.4264,-6.4313,-6.4339,-6.4338,-6.4286,-6.4275,-6.4354,-6.4364,-6.4376,-6.4576,-6.4387,-6.4395,-6.44,-6.4817,-6.4825,-6.4832,0,0,0,0,0,0,-6.4149,-6.4171,-6.4343,-6.4257,-6.4276,-6.4267,-6.4322,-6.4317,-6.4347,-6.4345,-6.4341,-6.4319,-6.435,-6.4364,-6.4487,-6.4576,-6.4399,-6.4406,-6.481,-6.482,-6.4829,-6.4978,0,0,0,0,0,0,-6.4143,-6.417,-6.4237,-6.4259,-6.4281,-6.4456,-6.4328,-6.4323,-6.4362,-6.4349,-6.4375,-6.4374,-6.4346,-6.4475,-6.4495,-6.4585,-6.4413,-6.4802,-6.4814,-6.4826,-6.4965,-6.4991,-6.5014,0,0,0,0,0,-6.4134,-6.4275,-6.4241,-6.4263,-6.4365,-6.4461,-6.4474,-6.4441,-6.437,-6.4435,-6.4434,-6.4373,-6.4564,-6.4489,-6.451,-6.4604,-6.4796,-6.4811,-6.4825,-6.4953,-6.4986,-6.5013,0,0,0,0,0,0,-6.4262,-6.4277,-6.4239,-6.4392,-6.4427,-6.4442,-6.4523,-6.4477,-6.4531,-6.4516,-6.4471,-6.4478,-6.4609,-6.4619,-6.4535,-6.4769,-6.4667,-6.4687,-6.4758,-6.4789,-6.4813,-6.4807,-6.442,0,0,0,0,0,-6.4308,-6.4388,-6.4396,-6.4529,-6.4549,-6.4534,-6.4574,-6.4546,-6.4579,-6.4593,-6.46,-6.4633,-6.4699,-6.4745,-6.4806,-6.4965,-6.4968,-6.504,-6.5065,-6.5085,-6.5102,-6.5184,-6.5216,-6.4879,-6.4879,-6.4879,0,0,-6.4404,-6.4422,-6.4474,-6.4555,-6.4579,-6.4659,-6.4547,-6.4637,-6.4696,-6.4606,-6.4722,-6.4729,-6.4762,-6.4903,-6.4966,-6.4915,-6.5195,-6.5103,-6.5119,-6.5125,-6.5202,-6.5234,-6.5262,-6.4889,-6.4887,-6.4886,0,0,-6.4619,-6.4642,-6.4755,-6.4781,-6.4818,-6.4807,-6.4834,-6.4857,-6.4858,-6.4975,-6.4908,-6.4976,-6.5093,-6.5119,-6.5148,-6.5372,-6.5317,-6.5393,-6.5521,-6.5602,-6.5628,-6.5651,-6.573,-6.5758,-6.541,-6.541,-6.541,0,-6.4733,-6.4854,-6.4819,-6.4914,-6.495,-6.4874,-6.4987,-6.5013,-6.5068,-6.5093,-6.5036,-6.5181,-6.5198,-6.5343,-6.5397,-6.5424,-6.5451,-6.5389,-6.5628,-6.5651,-6.5672,-6.5746,-6.5775,-6.5419,-6.5418,-6.5417,-6.5416,0,-6.4991,-6.5076,-6.5162,-6.5219,-6.5265,-6.5369,-6.5346,-6.5397,-6.5364,-6.5359,-6.5477,-6.5495,-6.5558,-6.559,-6.5559,-6.5731,-6.5698,-6.5635,-6.5532,-6.5713,-6.5782,-6.581,-6.5432,-6.5429,-6.5426,-6.5424,0,0,-6.5289,-6.5324,-6.5356,-6.538,-6.5415,-6.5479,-6.5578,-6.5641,-6.5685,-6.5725,-6.5805,-6.5905,-6.5847,-6.5879,-6.585,-6.5922,-6.6095,-6.5849,-6.5849,-6.5893,-6.6283,-6.6329,-6.6363,-6.606,-6.6065,-6.6069,-6.628,0,-6.5502,-6.5675,-6.5646,-6.5812,-6.5889,-6.5817,-6.5903,-6.5932,-6.5929,-6.5991,-6.5986,-6.6058,-6.5977,-6.5996,-6.6063,-6.606,-6.6173,-6.6045,-6.6131,-6.6135,-6.6124,-6.6399,-6.6449,-6.6647,-6.6307,-6.6311,-6.6314,0,-6.5775,-6.5826,-6.6002,-6.6023,-6.6054,-6.6132,-6.6186,-6.6248,-6.6279,-6.6271,-6.6307,-6.6264,-6.636,-6.6257,-6.6387,-6.63,-6.6333,-6.6337,-6.6344,-6.635,-6.6235,-6.6411,-6.6709,-6.6739,-6.6357,-6.6353,-6.635,0,-6.5972,-6.6086,-6.6204,-6.6227,-6.6256,-6.6312,-6.6326,-6.6351,-6.6391,-6.6438,-6.6462,-6.6519,-6.655,-6.6595,-6.6567,-6.6495,-6.6701,-6.6596,-6.6695,-6.6696,-6.6741,-6.6739,-6.7048,-6.6766,-6.6765,-6.6764,-6.6764,0,-6.6213,-6.6323,-6.6294,-6.6367,-6.6486,-6.645,-6.6568,-6.6573,-6.6596,-6.6667,-6.6608,-6.6675,-6.6636,-6.6699,-6.6678,-6.6787,-6.6802,-6.6797,-6.679,-6.6802,-6.6802,-6.6822,-6.6807,-6.6772,-6.6771,-6.6769,-6.6768,0,-6.6454,-6.644,-6.6564,-6.6581,-6.6588,-6.6675,-6.6688,-6.6755,-6.6747,-6.6837,-6.6856,-6.6843,-6.6915,-6.6892,-6.6969,-6.6954,-6.7093,-6.7069,-6.7084,-6.7077,-6.7177,-6.7168,-6.7509,-6.7551,-6.7243,-6.7246,-6.7248,0,-6.6609,-6.6691,-6.6717,-6.6762,-6.6781,-6.6852,-6.6892,-6.6859,-6.6903,-6.6943,-6.7005,-6.7071,-6.7123,-6.724,-6.7236,-6.7293,-6.7269,-6.7385,-6.7277,-6.7286,-6.7269,-6.7264,-6.7271,-6.7406,-6.741,-6.7412,-6.7415,0,-6.6883,-6.6872,-6.6933,-6.6992,-6.7042,-6.7086,-6.7125,-6.7163,-6.7132,-6.7184,-6.7257,-6.7297,-6.7376,-6.7442,-6.7494,-6.7505,-6.7455,-6.7449,-6.7475,-6.7487,-6.7492,-6.7489,-6.7141,-6.7441,-6.7438,-6.7436,-6.7435,-6.7434,-6.7084,-6.7154,-6.7183,-6.7253,-6.7278,-6.7316,-6.7379,-6.7379,-6.744,-6.7503,-6.7479,-6.7562,-6.7588,-6.7653,-6.7672,-6.7735,-6.769,-6.7728,-6.7737,-6.7747,-6.7759,-6.7483,-6.7745,-6.7744,-6.7743,-6.7742,-6.7742,0,-6.7355,-6.737,-6.7434,-6.7491,-6.7545,-6.7495,-6.7534,-6.7582,-6.7657,-6.7687,-6.7739,-6.7822,-6.7885,-6.7887,-6.7945,-6.7995,-6.7973,-6.8011,-6.8007,-6.801,-6.7797,-6.7768,-6.8028,-6.8028,-6.8028,-6.8028,-6.8028,-6.8028,-6.7502,-6.7616,-6.7608,-6.7733,-6.7747,-6.783,-6.7856,-6.7889,-6.7913,-6.8009,-6.8062,-6.8063,-6.808,-6.8139,-6.8194,-6.8193,-6.8216,-6.8263,-6.8253,-6.8053,-6.8025,-6.7998,-6.797,-6.8269,-6.8269,-6.846,-6.8462,-6.8463]}]]